Regional Weather Roundup
Issued by NWS Kansas City/Pleasant Hill, MO

Home | Current Version | Previous Version | Graphics & Text | Print | Product List | Glossary Off
Versions: 1 2 3 4 5 6 7 8 9 10 11 12 13 14 15 16 17 18 19 20 21 22 23 24 25 26 27 28 29 30 31 32 33 34 35 36 37 38 39 40 41 42 43 44 45 46 47 48 49 50

000
ASUS43 KEAX 280010
RWREAX

WEATHER ROUNDUP FOR EASTERN KANSAS AND NORTHWEST MISSOURI
NATIONAL WEATHER SERVICE KANSAS CITY/PLEASANT HILL MO
700 PM CDT MON JUL 27 2015

KSZ040-057-103>105-MOZ028-029-037-043-280100-
...KANSAS CITY METROPOLITAN AREA...

CITY           SKY/WX    TMP DP  RH WIND       PRES   REMARKS
K.C. INTL      PTSUNNY   90  77  65 S8        29.87S HX 103
6HR MIN TEMP:  85; 6HR MAX TEMP:  91;

K.C. DOWNTOWN  MOSUNNY   93  73  52 S13       29.85S HX 102
6HR MIN TEMP:  89; 6HR MAX TEMP:  95;

LEES SUMMIT    SUNNY     92  72  51 S9        29.89R HX  99
6HR MIN TEMP:  88; 6HR MAX TEMP:  92;

OLATHE - IXD   SUNNY     92  72  51 S8        29.87F HX  99
6HR MIN TEMP:  88; 6HR MAX TEMP:  95;

OLATHE - OJC   SUNNY     89  72  56 S7        29.87S HX  96
6HR MIN TEMP:  86; 6HR MAX TEMP:  92;

LAWRENCE       SUNNY     92  72  51 S8        29.84F HX  99

$$

MOZ001>008-011>017-020>025-030>033-038>040-044>046-053-054-280100-
...NORTHERN AND CENTRAL MISSOURI...

CITY           SKY/WX    TMP DP  RH WIND       PRES   REMARKS
ST. JOSEPH     MOSUNNY   89  78  70 SE9       29.85S HX 103
6HR MIN TEMP:  85; 6HR MAX TEMP:  91;

MOSBY          PTCLDY    90  75  62 SE3       29.87S HX 100
WARRENSBURG    MOSUNNY   90  73  58 SE3       29.88S HX  98
WHITEMAN AFB   PTSUNNY   92  76  60 S7        29.88S HX 105
6HR MIN TEMP:  92; 6HR MAX TEMP:  96;

CLINTON          N/A     91  77  62 CALM      29.88F HX 105
SEDALIA        MOSUNNY   92  75  57 SW5       29.90S HX 103
6HR MIN TEMP:  91; 6HR MAX TEMP:  95;

WARSAW         NOT AVBL
CHILLICOTHE      N/A     81  71  71 NE13G22   29.93R
6HR MIN TEMP:  81; 6HR MAX TEMP:  94;

KIRKSVILLE     CLOUDY    74  69  85 E10       29.96F
6HR MIN TEMP:  72; 6HR MAX TEMP:  90; 6HR PCP:  0.33;


$$

MOZ041-047>049-056>058-063>065-088>090-097-280100-
...EASTERN AND SOUTHERN MISSOURI...

CITY           SKY/WX    TMP DP  RH WIND       PRES   REMARKS
ST. LOUIS INTL PTSUNNY   81  72  74 NW5       29.93R
6HR MIN TEMP:  80; 6HR MAX TEMP:  97; 6HR PCP:  0.03;

SPIRIT OF STL  PTSUNNY   81  72  74 CALM      29.91R THUNDER
COLUMBIA       SUNNY     91  76  61 W3        29.90S HX 103
JEFFERSON CITY SUNNY     93  73  52 W3        29.87S HX 102
ROLLA          SUNNY     90  75  61 SW6       29.90F HX 100
OSAGE BEACH    SUNNY     91  75  59 SW5       29.89F HX 102
SPRINGFIELD    SUNNY     90  75  61 S7        29.91F HX 100
BRANSON        MOSUNNY   88  77  70 SE8       29.94F HX 100
JOPLIN         SUNNY     92  74  55 S8        29.90S HX 101
WEST PLAINS    PTSUNNY   87  74  64 S8G21     29.96R HX  95

$$

IAZ060-094-KSZ022-034>040-054-083-096-NEZ052-066-093-280100-
...KANSAS...SOUTHEAST NEBRASKA AND IOWA...

CITY           SKY/WX    TMP DP  RH WIND       PRES   REMARKS
TOPEKA         SUNNY     93  71  48 S7        29.83F HX 100
6HR MIN TEMP:  84; 6HR MAX TEMP:  95;

MANHATTAN      MOSUNNY   93  70  46 S9        29.81F HX  99
EMPORIA        SUNNY     93  68  43 S16       29.85F HX  97
CHANUTE        SUNNY     91  73  55 S10       29.87F HX  99
WICHITA        MOSUNNY   94  63  35 S15G25    29.83F HX  95
OMAHA          PTSUNNY   85  74  69 SE20      29.85S HX  92
LINCOLN        SUNNY     90  75  61 S14       29.81F HX 100
FALLS CITY     MOSUNNY   87  80  79 SE7       29.83F HX 103
LAMONI         SUNNY     79  72  79 E10       29.93S
DES MOINES     PTSUNNY   77  69  76 SE10      29.90F

$$




USA.gov is the U.S. government's official web portal to all federal, state and local government web resources and services.